Temp
24 26 26 27 25 24 23 23 23 23 23 22 22 22 22 22 21 21 20 20 20 20 20 20 20 20 20 20 21 21 21 20 19 18 18 18 18 18 18 18 18 18 18
28 26 26 27 25 24 23 23 23 22 22 22 22 22 22 22 21 21 20 20 21 20 20 20 20 20 20 20 20 20 20 20 19 19 19 18 18 18 18 18 18 18 18
28 27 26 26 25 24 23 23 22 22 21 21 22 21 21 21 21 20 20 20 20 19 20 20 20 20 20 20 20 20 19 19 19 20 19 18 18 18 18 19 18 17 17
29 27 28 27 25 24 23 23 22 22 22 21 21 21 21 21 21 20 20 20 20 20 19 19 19 20 20 20 20 20 20 19 19 19 19 18 17 18 18 18 17 17 17
28 28 28 27 26 24 23 23 22 22 22 21 21 21 21 21 20 20 20 20 20 20 20 19 20 19 20 20 20 19 19 19 18 18 18 18 17 17 16 17 17 17 16
28 28 28 27 25 25 24 23 22 22 21 21 20 20 21 20 20 20 21 20 20 19 20 21 20 19 19 20 20 19 19 19 18 18 18 18 17 16 16 16 16 16 16
28 26 27 26 26 24 24 23 23 22 21 21 20 20 20 20 20 20 20 20 20 21 21 20 19 19 18 20 19 18 19 18 18 18 18 17 17 16 16 16 16 16 16
28 26 26 26 26 24 24 23 23 23 23 21 20 20 20 20 20 20 20 20 20 20 20 20 19 19 19 19 19 18 18 18 18 17 18 16 16 16 16 16 16 16 16
28 27 25 25 25 24 23 23 22 23 21 20 19 19 20 20 20 20 20 20 19 20 20 20 20 19 19 19 20 18 19 18 18 17 17 16 17 16 15 15 15 15 14
27 27 26 25 24 24 22 22 22 22 20 19 18 18 19 19 19 19 20 20 19 19 19 19 19 18 19 19 20 18 19 18 17 17 16 15 16 15 15 15 14 14 14
25 26 25 25 24 23 23 21 21 21 21 18 18 18 19 19 19 19 19 20 20 19 19 19 19 19 18 19 20 19 19 18 17 18 17 16 16 15 15 14 14 13 13
24 24 24 24 23 22 22 22 20 20 21 19 18 18 18 19 19 19 19 19 19 19 19 19 19 19 19 19 19 19 19 18 17 17 16 16 15 15 14 14 13 13 13
25 24 24 23 23 22 21 21 21 20 19 20 17 18 18 18 19 19 18 18 18 18 18 18 18 18 18 19 19 19 19 17 18 17 16 15 15 15 15 15 14 13 13
24 25 24 24 22 21 21 20 21 20 19 20 19 18 18 18 18 18 18 18 18 18 18 18 18 18 18 18 19 19 18 17 17 17 15 15 15 14 14 15 14 13 13
25 25 23 23 22 22 21 21 20 20 19 20 19 19 19 19 18 18 18 18 18 18 17 17 18 18 18 18 18 19 18 17 17 16 15 15 14 14 14 14 14 13 13
28 25 23 23 23 22 22 21 20 20 19 19 19 19 19 19 19 18 18 18 18 18 17 17 18 17 17 17 18 18 18 17 17 16 15 15 15 14 14 14 13 13 13
29 28 24 23 23 22 21 22 21 20 20 20 20 19 19 19 19 19 18 18 18 18 17 17 17 17 17 17 17 16 16 17 17 16 15 15 15 14 14 14 14 13 13
29 29 26 23 23 23 22 22 21 20 20 20 20 20 20 19 19 19 19 18 18 18 17 17 17 16 16 16 16 16 15 17 17 16 16 15 14 14 14 14 14 13 13
28 28 24 23 22 23 23 22 22 21 20 20 20 21 20 20 20 19 19 18 18 17 17 17 16 16 15 15 16 15 17 17 16 16 15 15 14 14 14 14 13 13 13
26 26 25 25 24 24 23 22 21 20 20 20 20 20 21 20 20 19 19 18 18 18 17 16 16 15 15 15 15 15 16 15 16 16 16 15 14 14 14 13 13 13 13
25 25 25 24 24 24 22 21 19 19 20 19 19 20 20 20 20 20 19 18 18 17 17 16 15 15 15 14 14 14 14 15 17 17 16 15 14 14 14 14 13 13 13
24 24 24 23 23 23 23 23 21 20 19 19 19 19 20 21 20 20 19 18 17 16 16 15 15 14 14 14 14 14 13 15 17 16 16 15 15 15 14 14 14 13 13
22 23 22 22 22 22 23 23 23 20 19 18 17 18 19 19 20 19 19 18 17 16 16 15 15 14 14 14 14 15 13 14 15 16 16 15 15 15 15 14 14 14 14
21 22 22 22 21 21 21 22 23 22 18 17 17 18 19 19 19 19 18 18 18 16 15 15 15 14 14 14 14 15 17 17 15 15 16 16 16 15 15 15 15 14 15
21 21 21 21 21 20 20 19 20 20 19 18 17 18 19 19 18 18 17 17 17 16 15 15 14 14 14 14 14 14 15 17 17 16 15 15 16 15 16 16 15 15 15
21 21 21 20 19 19 20 20 18 18 18 17 16 16 17 18 17 17 16 16 16 15 15 14 14 14 13 14 14 14 15 16 16 16 15 16 16 16 16 16 16 15 15
Height
757 757 759 761 764 767 770 772 774 777 780 782 784 787 790 793 796 798 800 802 804 806 808 810 814 817 818 819 816 816 816 819 821 824 825 824 825 827 830 832 833 834 836
753 757 760 760 764 767 770 772 774 777 781 783 785 787 790 793 797 800 802 805 808 809 811 813 817 820 820 818 820 818 819 820 820 822 825 826 828 830 833 834 835 837 839
752 756 758 760 763 767 769 772 776 779 781 784 786 788 791 794 798 801 804 806 809 811 815 817 819 820 823 823 823 824 824 824 823 824 827 828 830 833 835 837 838 839 840
751 754 756 759 763 766 769 772 776 778 781 784 787 790 792 794 797 801 804 806 809 810 812 816 821 825 827 827 825 826 827 828 828 829 830 832 834 836 838 838 839 841 843
751 754 756 759 762 765 768 771 775 778 780 783 787 790 792 794 798 801 803 806 808 811 811 815 815 823 827 830 829 830 830 832 833 833 833 835 837 838 840 842 842 842 844
751 755 757 759 762 763 767 770 774 777 780 783 786 790 793 795 797 799 803 805 807 810 811 810 815 820 825 828 830 831 833 835 835 835 835 836 836 840 842 844 844 845 846
751 755 757 759 762 764 766 769 772 775 779 782 785 788 793 796 799 801 803 806 808 809 810 813 815 818 824 827 832 833 834 835 837 837 837 838 838 840 843 845 846 847 847
748 753 756 758 761 764 765 767 770 774 776 780 783 786 791 796 799 802 804 806 808 809 811 814 816 818 823 825 830 834 835 836 837 838 840 840 840 842 847 847 848 849 849
744 749 754 757 759 762 765 767 769 772 776 778 781 785 789 794 797 801 803 805 809 811 811 814 817 820 822 826 828 834 835 837 834 837 839 842 838 840 847 848 850 850 852
741 746 750 755 757 759 763 767 768 770 774 777 780 785 788 792 795 799 803 805 807 811 812 814 818 822 824 827 828 832 835 837 837 838 840 843 839 840 846 850 851 852 854
741 743 747 751 754 757 760 764 767 769 772 776 779 783 786 790 794 797 801 804 807 809 812 815 818 822 825 827 829 830 833 835 837 836 839 842 840 844 846 848 852 853 855
740 741 742 748 752 753 756 759 764 767 768 772 776 780 783 787 791 795 799 802 806 807 812 814 818 820 823 825 826 828 832 833 835 836 839 842 842 843 844 847 852 854 856
733 737 739 743 748 750 752 755 759 763 766 768 772 775 779 784 788 792 796 799 803 806 810 814 816 818 821 822 823 825 829 833 834 835 839 841 842 844 843 846 851 854 857
731 732 734 738 743 748 750 751 754 757 761 764 768 771 775 779 783 788 792 795 798 802 806 810 814 816 818 819 821 824 829 831 833 834 838 841 841 843 845 847 851 854 857
723 727 730 733 737 742 746 748 751 754 756 759 764 767 770 773 777 782 787 792 795 798 802 807 810 813 815 817 820 822 827 830 831 834 837 840 841 842 845 847 851 855 857
719 721 725 729 733 737 739 743 747 751 754 758 760 764 767 770 774 778 782 788 792 795 798 803 807 811 815 816 819 823 826 830 831 833 836 840 841 843 845 848 850 855 858
715 716 719 725 729 732 734 739 743 747 751 754 756 760 763 766 770 774 778 783 788 791 795 800 805 807 812 815 821 824 827 827 829 832 834 838 841 843 845 847 849 854 857
711 712 713 717 721 726 730 734 738 742 746 750 754 756 760 763 766 771 774 778 784 787 792 797 801 806 809 815 817 822 827 826 828 830 833 836 839 842 845 847 849 852 855
705 707 710 714 716 721 728 731 733 737 741 745 749 754 755 758 762 766 770 774 780 783 787 792 797 801 806 811 816 819 822 824 826 829 832 835 838 841 843 846 848 852 854
701 705 710 714 718 721 724 728 732 735 738 740 745 748 752 754 757 761 765 769 774 778 782 788 794 798 802 806 810 816 819 822 823 826 830 834 838 840 843 845 847 850 853
698 703 709 714 717 720 723 725 729 730 733 736 740 744 748 749 753 755 759 764 768 772 776 782 789 793 797 803 809 814 818 822 819 823 827 831 835 838 841 843 845 847 850
694 700 705 709 712 716 718 719 722 725 726 729 733 737 743 745 748 751 754 758 763 768 772 777 782 789 794 797 802 809 817 821 818 820 824 828 832 835 838 840 843 845 847
692 696 703 706 709 710 712 715 717 720 724 725 728 732 737 740 743 746 749 753 756 761 766 771 775 780 786 793 794 797 804 811 814 819 821 825 828 831 835 838 841 843 845
692 696 701 706 710 712 713 710 712 713 717 719 722 726 732 734 738 740 743 746 750 756 760 765 770 774 779 785 791 793 793 792 800 814 818 820 824 827 831 834 838 840 843
694 698 702 708 712 712 713 711 711 710 712 713 717 721 726 729 732 736 737 741 745 751 754 759 765 769 773 777 782 786 789 792 795 801 808 815 821 824 827 831 836 838 839
695 699 701 710 713 711 711 711 711 712 711 712 715 718 721 723 726 729 733 737 741 745 749 753 758 763 767 771 775 778 780 782 785 793 800 807 813 819 824 828 833 836 837
Wind_Speed
21 20 17 14 12 12 13 13 12 11 10 11 12 12 13 13 13 13 15 17 18 16 18 16 14 12 11 14 19 19 21 23 26 26 26 25 25 25 23 25 26 26 26
25 20 15 14 13 12 12 12 13 12 11 11 12 13 14 14 13 14 15 15 15 12 13 14 13 11 12 14 16 19 21 25 27 28 27 27 26 24 22 25 26 26 25
24 20 17 15 14 13 13 12 12 12 11 10 11 13 14 14 14 14 15 15 14 11 10 10 11 12 12 14 16 19 21 23 24 24 24 25 24 23 23 22 24 24 24
22 21 17 14 13 13 13 13 13 13 12 11 11 12 14 14 15 16 16 14 12 14 16 14 10 8 10 13 14 17 20 23 21 21 22 24 22 20 20 22 23 22 22
21 20 18 15 14 14 14 14 14 14 14 13 12 13 14 15 16 17 16 14 13 12 17 17 16 11 9 10 13 17 21 23 16 19 19 21 20 18 19 20 21 23 23
20 19 17 15 15 16 16 16 15 15 15 14 13 13 14 16 17 19 16 15 12 11 14 18 18 17 10 8 11 15 19 17 14 17 20 20 23 20 20 21 22 24 24
20 19 17 15 15 16 17 17 17 16 17 16 15 14 14 16 17 18 17 12 10 9 7 14 21 20 14 12 11 14 19 14 15 21 20 23 24 21 22 23 23 23 21
25 22 19 16 15 16 17 18 18 17 17 19 18 17 17 18 17 19 17 9 15 7 9 19 19 20 16 12 11 12 15 13 9 10 16 23 24 22 21 20 20 19 19
29 25 20 19 18 17 17 18 18 17 17 20 18 20 20 20 19 21 21 11 16 7 12 20 19 19 16 15 13 13 12 8 15 25 24 25 24 23 19 19 18 17 17
29 25 21 21 21 21 20 20 19 18 18 20 19 20 21 21 21 21 20 12 13 11 19 20 18 16 15 13 14 12 13 14 20 24 25 25 23 23 22 19 18 17 16
26 25 21 22 24 23 22 22 20 19 18 20 21 21 21 22 22 22 22 15 17 14 18 17 16 16 15 15 14 13 13 6 22 20 23 22 22 23 21 19 17 16 16
26 23 22 22 25 24 24 24 23 22 22 22 22 24 23 24 24 24 22 18 19 18 19 17 18 18 17 19 19 16 12 7 29 23 25 22 20 22 21 17 16 15 15
32 28 26 24 24 26 26 25 26 25 25 24 24 27 26 25 24 25 23 20 22 20 19 19 19 19 20 20 19 18 13 5 22 24 23 22 22 21 20 17 16 15 16
27 33 32 29 28 27 25 26 28 29 28 27 27 27 29 29 26 27 26 25 26 25 24 24 21 21 20 21 21 20 15 10 22 25 25 22 22 21 19 18 17 16 17
34 36 36 35 33 30 29 27 27 29 29 29 29 29 29 31 31 29 29 28 29 27 27 26 24 24 23 21 23 24 19 14 24 25 25 20 23 22 20 19 18 18 18
21 38 39 39 36 33 32 33 30 26 25 27 28 31 30 30 32 33 31 30 29 29 29 27 26 26 25 20 22 22 21 19 26 26 25 23 20 21 21 21 19 18 17
18 18 37 41 37 35 36 31 32 29 28 27 30 30 33 31 32 32 32 32 31 31 29 28 26 25 22 20 16 22 16 23 27 27 25 24 20 21 21 21 21 19 18
21 21 30 41 42 39 36 33 29 29 28 25 29 30 32 36 32 33 33 34 32 32 30 30 28 26 21 20 16 29 20 27 28 27 26 25 24 23 21 20 20 21 19
22 14 23 32 40 38 33 33 31 31 31 31 23 32 30 36 36 34 35 32 33 34 34 33 31 32 25 22 24 31 18 31 30 26 27 25 25 24 24 22 22 22 18
16 15 12 11 17 30 30 31 33 32 33 28 34 23 33 33 38 34 33 34 34 37 34 34 35 33 30 25 23 23 25 26 32 27 25 25 26 25 24 24 24 21 19
15 11 6 5 6 11 22 27 27 31 33 32 35 36 23 33 34 37 34 33 35 38 36 34 34 35 29 24 17 18 25 20 28 26 27 25 28 26 26 26 25 23 22
18 13 8 8 9 6 11 21 26 30 30 34 35 33 37 29 32 33 34 35 34 33 34 34 36 24 19 31 17 20 5 11 25 28 31 30 29 28 27 28 27 26 24
19 14 6 5 10 14 19 21 21 19 23 25 27 30 32 36 31 34 36 38 36 36 35 37 38 32 24 26 24 17 4 5 9 19 33 32 32 32 29 28 29 25 22
21 16 9 7 13 15 16 20 24 25 16 22 24 27 28 29 32 32 37 38 37 36 34 38 38 36 31 27 26 28 20 19 12 6 21 31 33 36 33 31 27 24 22
18 14 11 7 12 12 9 5 7 18 23 23 24 26 26 28 28 35 35 33 33 37 35 34 35 36 36 31 33 32 25 24 32 14 10 12 28 32 32 31 26 23 22
18 13 9 10 15 15 12 11 9 12 16 17 20 24 27 29 31 28 29 30 31 33 33 36 38 36 36 31 33 32 34 26 27 18 9 17 20 24 31 31 28 27 19
Wind_Direction
141 138 143 139 141 144 146 147 150 151 143 136 135 132 127 123 121 119 120 122 120 126 131 133 131 122 129 136 141 135 124 122 120 117 111 107 107 110 113 115 112 112 112
138 141 144 136 144 149 151 155 155 155 150 145 142 138 133 132 130 126 124 122 117 121 130 129 129 133 139 143 135 127 128 129 129 123 116 110 110 112 118 117 114 113 111
136 144 142 135 143 149 152 154 156 154 153 151 146 144 139 136 135 131 126 119 114 111 108 117 120 133 141 133 130 129 125 123 119 118 118 116 117 119 121 118 117 117 115
142 144 132 132 139 146 151 154 156 158 159 157 152 149 145 145 143 138 134 139 139 138 124 118 99 121 134 138 134 128 122 119 117 118 121 120 120 121 124 121 121 119 117
145 142 136 140 143 145 150 152 157 162 166 164 162 158 155 153 148 144 150 151 155 145 130 134 132 155 157 149 142 136 128 121 116 127 127 126 121 121 121 122 124 123 123
149 148 145 146 149 148 152 154 161 164 169 168 169 166 161 161 158 159 161 165 156 158 149 151 153 155 161 171 155 149 136 133 121 129 134 135 128 125 126 128 127 124 123
158 162 153 155 154 154 155 157 161 165 171 170 170 171 167 167 169 166 170 175 161 138 174 167 164 150 162 185 174 162 148 146 135 144 140 137 132 129 130 133 132 132 129
165 171 166 166 164 164 163 164 165 166 164 168 171 173 170 176 176 175 174 177 163 138 138 168 155 151 166 192 190 171 160 152 169 152 146 136 131 126 125 136 138 137 134
167 172 175 175 172 173 172 173 171 170 170 169 171 172 175 181 183 183 177 153 169 166 171 161 157 165 172 191 196 175 171 132 173 160 157 144 141 138 136 138 140 137 131
167 174 181 184 180 177 177 181 178 177 176 173 169 174 178 183 188 192 191 183 179 164 162 163 166 179 182 191 201 183 173 134 156 153 153 151 143 137 139 137 138 136 134
167 175 182 191 187 184 182 183 185 185 181 174 175 177 184 186 191 194 195 189 179 175 172 167 168 178 185 193 214 203 185 158 171 170 157 157 145 141 141 141 142 139 136
170 182 189 194 195 189 188 189 190 189 188 182 182 183 191 189 194 197 196 197 186 180 184 181 179 182 192 195 200 208 184 144 167 166 158 158 150 149 146 144 147 143 144
184 189 200 203 199 195 193 192 194 194 194 192 187 189 191 194 196 201 201 194 187 184 190 188 187 190 195 196 194 204 188 163 175 166 158 157 151 152 152 154 154 149 149
185 195 200 206 200 199 196 199 199 199 200 199 197 195 193 195 197 201 203 200 191 191 192 191 192 191 195 198 194 202 195 169 175 165 161 167 161 155 152 158 157 159 150
195 199 201 201 202 198 196 205 204 205 206 205 201 201 198 197 196 198 201 203 199 197 196 196 195 192 195 198 198 194 194 183 172 163 162 167 157 155 153 157 158 156 153
206 201 200 201 205 198 200 205 207 205 209 210 208 205 207 203 201 198 200 205 203 199 200 201 194 193 197 200 200 205 195 192 174 164 161 162 158 157 157 157 157 160 160
231 207 198 198 204 204 200 206 212 213 205 212 212 211 208 210 206 202 201 202 207 203 206 204 196 193 204 203 214 206 215 189 173 169 165 166 164 165 169 166 164 165 167
235 224 200 196 202 206 201 204 215 213 211 212 213 213 213 212 210 203 200 203 201 202 204 204 194 196 196 206 203 194 225 179 174 172 171 171 171 174 174 172 169 172 172
233 220 196 189 194 202 207 208 214 219 212 216 220 220 218 214 211 205 201 200 202 199 200 202 193 191 193 198 204 211 208 179 174 175 175 178 177 177 178 176 173 180 179
135 120 121 139 194 209 211 210 212 216 218 216 220 226 224 220 213 205 199 199 198 197 196 200 194 194 201 204 210 216 217 179 176 177 179 182 186 185 186 183 181 184 185
124 114 117 142 172 190 208 207 205 213 222 223 221 221 225 219 213 207 198 196 198 198 199 203 193 196 203 206 186 192 208 218 175 181 178 184 191 192 193 191 189 189 190
108 98 70 28 351 309 227 210 214 223 225 227 226 221 223 226 219 214 204 197 201 199 201 200 193 187 191 190 189 164 189 211 181 181 184 188 191 193 197 198 197 196 194
108 101 81 6 331 322 301 260 227 215 220 216 213 221 224 223 226 219 215 204 204 204 199 199 196 189 187 193 185 177 147 188 162 194 187 188 193 196 200 198 202 202 201
102 91 63 353 310 317 310 256 219 216 194 205 199 212 220 225 224 219 220 212 209 206 199 200 203 197 186 190 195 206 199 168 166 173 185 189 197 198 201 202 203 203 198
101 91 75 9 302 295 312 25 249 220 213 208 202 210 220 219 224 222 211 212 214 204 199 203 201 196 196 192 196 198 213 183 178 179 177 176 186 192 200 200 196 197 206
95 82 55 2 1 292 282 295 280 251 215 191 195 206 215 217 216 212 211 213 215 213 211 205 206 206 202 200 201 200 199 186 184 176 171 184 189 201 196 197 194 195 192